Kaka

Turkmenistan     37˚20′39″N   59˚37′03″E
temp.,
°C
wind,
m/s
gust,
m/s
humid.,
%
clouds,
%
prec.,
mm/h
press.,
hPa
HPBL,
m
29 november, sun
sun2923:00+5˚e3559100 0.0 1035254
02:00+4˚e2459100 0.0 1034155
05:00+2˚ene136598 0.0 103386
08:00+2˚e1268100 0.0 103268
11:00+6˚ne235480 0.0 1032388
14:00+10˚e564520 0.0 1029682
17:00+9˚e564821 0.0 1029623
20:00+6˚e255661 0.0 1029173
30 november, mon
mon3023:00+4˚ne125563 0.0 102870
02:00+4˚nnw1252100 0.0 1027103
05:00+4˚ne1259100 0.3 1026193
08:00+4˚e126292 0.1 1025133
11:00+6˚ene234781 0.1 1024367
14:00+9˚nne224033 0.0 1022661
17:00+6˚n445264 0.2 1023447
20:00+2˚nnw226737 0.0 1025248
1 december, tue
tue123:00+2˚nw016634 0.0 102539
02:00+2˚nnw016823 0.0 102531
05:00+1˚ene117417 0.0 102522
08:00+1˚ese117836 0.0 102622
11:00+6˚ene225819 0.0 1026205
14:00+9˚ene32500 0.0 1023402
17:00+9˚ene23490 0.0 1022438
20:00+6˚ene12610 0.0 102425
2 december, wed
wed223:00+4˚ene11650 0.0 102422
02:00+3˚ne01680 0.0 102422
05:00+3˚nw00704 0.0 102422
08:00+3˚nne016992 0.0 102522
11:00+7˚ne115083 0.0 1025210
14:00+10˚ene214170 0.0 1023474
17:00+10˚ene114235 0.0 1022395
20:00+7˚ne115362 0.0 102422
3 december, thu
thu323:00+5˚ene116052 0.0 102422
02:00+4˚nne016371 0.0 102422
05:00+5˚wnw126086 0.0 102426
08:00+4˚nne116595 0.0 102528
11:00+6˚ene226496 0.4 1025308
14:00+4˚nnw228099 0.9 1024226
17:00+4˚nnw0191100 3.4 1024121
20:00+4˚n1193100 1.6 1026140